Lincoln, CA

8:55 PM PDT on June 25, 2017 (GMT -0700)
Lincoln Regional-Harder

Weather History for KLHM - June, 2013

Change the Weather History Date:

Sunday, June 30, 2013

  Actual Average (KAUN) Record (KAUN)
Temperature  
Mean Temperature 86 °F -  
Max Temperature 107 °F 86 °F 107 °F (1950)
Min Temperature 64 °F 58 °F 42 °F (1953)
Cooling Degree Days 20    
Growing Degree Days 36 (Base 50)    
Moisture  
Dew Point 54 °F    
Average Humidity 38    
Maximum Humidity 83    
Minimum Humidity 10    
Precipitation  
Precipitation 0.00 in - - ()
Sea Level Pressure  
Sea Level Pressure 29.74 in    
Wind  
Wind Speed 5 mph (SSW)    
Max Wind Speed 9 mph    
Max Gust Speed -    
Visibility 10 miles    
Events      
Averages and records for this station are not official NWS values.
T = Trace of Precipitation, MM = Missing Value Source: NWS Daily Summary

Daily Weather History Graph

Daily Weather History Graph

Search for Another Location

Airport or City:

Trip Planner

Search our weather history database for the weather conditions in past years. The results will help you decide how hot, cold, wet, or windy it might be!

Date:

Astronomy

Jun. 30, 2013 Rise Set
Actual Time 5:43 AM PDT 8:34 PM PDT
Civil Twilight 5:11 AM PDT 9:06 PM PDT
Nautical Twilight 4:31 AM PDT 9:46 PM PDT
Astronomical Twilight 3:45 AM PDT 10:32 PM PDT
Moon 12:42 AM PDT (6/30) 1:57 PM PDT (6/30)
Length of Visible Light 15h 55m
Length of Day
14h 51m
Last Quarter, 44% of the Moon is Illuminated
Jun 30
Last Quarter
Jul 8
New
Jul 15
First Quarter
Jul 22
Full
Jul 29
Last Quarter

Hourly Weather History & Observations

Time (PDT) Temp. Heat Index Dew Point Humidity Pressure Visibility Wind Dir Wind Speed Gust Speed Precip Events Conditions
12:15 AM 71.6 °F - 59.0 °F 64% 29.77 in 10.0 mi East 9.2 mph - N/A   Clear
12:35 AM 78.8 °F - 57.2 °F 47% 29.76 in 10.0 mi East 8.1 mph - N/A   Clear
12:55 AM 77.0 °F - 59.0 °F 54% 29.76 in 10.0 mi East 9.2 mph - N/A   Clear
1:15 AM 77.0 °F - 59.0 °F 54% 29.76 in 10.0 mi East 6.9 mph - N/A   Clear
1:35 AM 73.4 °F - 59.0 °F 61% 29.76 in 10.0 mi East 8.1 mph - N/A   Clear
1:55 AM 75.2 °F - 59.0 °F 57% 29.75 in 10.0 mi East 5.8 mph - N/A   Clear
2:15 AM 77.0 °F - 59.0 °F 54% 29.75 in 10.0 mi ESE 3.5 mph - N/A   Clear
2:35 AM 73.4 °F - 59.0 °F 61% 29.75 in 10.0 mi ESE 3.5 mph - N/A   Clear
2:55 AM 73.4 °F - 59.0 °F 61% 29.75 in 10.0 mi Calm Calm - N/A   Clear
3:15 AM 71.6 °F - 59.0 °F 64% 29.75 in 10.0 mi Calm Calm - N/A   Clear
3:35 AM 71.6 °F - 59.0 °F 64% 29.75 in 10.0 mi Calm Calm - N/A   Clear
3:55 AM 73.4 °F - 59.0 °F 61% 29.74 in 10.0 mi Calm Calm - N/A   Clear
4:15 AM 73.4 °F - 59.0 °F 61% 29.74 in 10.0 mi Calm Calm - N/A   Clear
4:35 AM 71.6 °F - 59.0 °F 64% 29.75 in 10.0 mi Calm Calm - N/A   Clear
4:55 AM 69.8 °F - 59.0 °F 68% 29.75 in 10.0 mi West 3.5 mph - N/A   Clear
5:15 AM 66.2 °F - 59.0 °F 78% 29.76 in 10.0 mi NW 3.5 mph - N/A   Clear
5:35 AM 66.2 °F - 59.0 °F 78% 29.76 in 10.0 mi Calm Calm - N/A   Clear
5:55 AM 64.4 °F - 59.0 °F 83% 29.77 in 10.0 mi North 5.8 mph - N/A   Clear
6:15 AM 64.4 °F - 59.0 °F 83% 29.78 in 10.0 mi North 3.5 mph - N/A   Clear
6:35 AM 66.2 °F - 60.8 °F 83% 29.78 in 10.0 mi Calm Calm - N/A   Clear
6:55 AM 69.8 °F - 62.6 °F 78% 29.78 in 10.0 mi NE 3.5 mph - N/A   Clear
7:15 AM 73.4 °F - 62.6 °F 69% 29.78 in 10.0 mi East 4.6 mph - N/A   Clear
7:35 AM 77.0 °F - 60.8 °F 57% 29.78 in 10.0 mi ENE 4.6 mph - N/A   Clear
7:55 AM 78.8 °F - 59.0 °F 51% 29.78 in 10.0 mi Calm Calm - N/A   Clear
8:15 AM 80.6 °F 81.1 °F 59.0 °F 48% 29.79 in 10.0 mi Calm Calm - N/A   Clear
8:35 AM 82.4 °F 82.0 °F 57.2 °F 42% 29.79 in 10.0 mi Calm Calm - N/A   Clear
8:55 AM 86.0 °F 84.9 °F 57.2 °F 37% 29.79 in 10.0 mi Calm Calm - N/A   Clear
9:15 AM 87.8 °F 85.7 °F 53.6 °F 31% 29.78 in 10.0 mi Calm Calm - N/A   Clear
9:35 AM 89.6 °F 87.7 °F 55.4 °F 31% 29.78 in 10.0 mi WSW 3.5 mph - N/A   Clear
9:55 AM 91.4 °F 89.1 °F 53.6 °F 28% 29.78 in 10.0 mi Calm Calm - N/A   Clear
10:15 AM 91.4 °F 89.1 °F 53.6 °F 28% 29.78 in 10.0 mi Calm Calm - N/A   Clear
10:35 AM 93.2 °F 91.3 °F 55.4 °F 28% 29.78 in 10.0 mi WSW 4.6 mph - N/A   Clear
10:55 AM 95.0 °F 93.0 °F 55.4 °F 26% 29.77 in 10.0 mi West 4.6 mph - N/A   Clear
11:15 AM 96.8 °F - 51.8 °F 22% 29.77 in 10.0 mi SSW 5.8 mph - N/A   Clear
11:35 AM 96.8 °F 94.4 °F 53.6 °F 23% 29.77 in 10.0 mi Calm Calm - N/A   Clear
11:55 AM 96.8 °F 94.4 °F 53.6 °F 23% 29.77 in 10.0 mi SSW 4.6 mph - N/A   Clear
12:15 PM 98.6 °F 96.4 °F 53.6 °F 22% 29.77 in 10.0 mi SSW 4.6 mph - N/A   Clear
12:35 PM 98.6 °F 97.2 °F 55.4 °F 24% 29.77 in 10.0 mi SSW 8.1 mph - N/A   Clear
12:55 PM 98.6 °F 96.4 °F 53.6 °F 22% 29.76 in 10.0 mi SW 3.5 mph - N/A   Clear
1:15 PM 100.4 °F 98.4 °F 53.6 °F 21% 29.75 in 10.0 mi South 3.5 mph - N/A   Clear
1:35 PM 100.4 °F 98.4 °F 53.6 °F 21% 29.75 in 10.0 mi SW 5.8 mph - N/A   Clear
1:55 PM 102.2 °F 100.4 °F 53.6 °F 20% 29.74 in 10.0 mi SSW 4.6 mph - N/A   Clear
2:15 PM 104.0 °F - 51.8 °F 17% 29.73 in 10.0 mi SSW 5.8 mph - N/A   Clear
2:35 PM 104.0 °F - 48.2 °F 15% 29.73 in 10.0 mi WSW 5.8 mph - N/A   Clear
2:55 PM 104.0 °F - 44.6 °F 13% 29.73 in 10.0 mi SW 4.6 mph - N/A   Clear
3:15 PM 104.0 °F - 46.4 °F 14% 29.72 in 10.0 mi West 4.6 mph - N/A   Clear
3:35 PM 105.8 °F - 46.4 °F 14% 29.72 in 10.0 mi West 5.8 mph - N/A   Clear
3:55 PM 107.6 °F - 44.6 °F 12% 29.71 in 10.0 mi SW 5.8 mph - N/A   Clear
4:15 PM 105.8 °F - 44.6 °F 13% 29.71 in 10.0 mi West 6.9 mph - N/A   Clear
4:35 PM 107.6 °F - 41.0 °F 10% 29.70 in 10.0 mi WSW 6.9 mph - N/A   Clear
4:55 PM 107.6 °F - 41.0 °F 10% 29.69 in 10.0 mi WSW 6.9 mph - N/A   Clear
5:15 PM 107.6 °F - 39.2 °F 10% 29.69 in 10.0 mi WSW 8.1 mph - N/A   Clear
5:35 PM 107.6 °F - 41.0 °F 10% 29.68 in 10.0 mi SW 8.1 mph - N/A   Clear
5:55 PM 107.6 °F - 39.2 °F 10% 29.68 in 10.0 mi WSW 5.8 mph - N/A   Clear
6:15 PM 105.8 °F - 37.4 °F 10% 29.68 in 10.0 mi West 5.8 mph - N/A   Clear
6:35 PM 105.8 °F - 41.0 °F 11% 29.68 in 10.0 mi SW 5.8 mph - N/A   Clear
6:55 PM 105.8 °F - 39.2 °F 10% 29.68 in 10.0 mi SSW 4.6 mph - N/A   Clear
7:15 PM 104.0 °F - 39.2 °F 11% 29.67 in 10.0 mi SW 3.5 mph - N/A   Clear
7:35 PM 102.2 °F - 44.6 °F 14% 29.67 in 10.0 mi SW 4.6 mph - N/A   Clear
7:55 PM 98.6 °F 97.2 °F 55.4 °F 24% 29.67 in 10.0 mi SW 5.8 mph - N/A   Clear
8:15 PM 95.0 °F 94.4 °F 59.0 °F 30% 29.68 in 10.0 mi WSW 5.8 mph - N/A   Clear
8:35 PM 91.4 °F 89.4 °F 55.4 °F 29% 29.68 in 10.0 mi SSW 8.1 mph - N/A   Clear
8:55 PM 87.8 °F 86.5 °F 57.2 °F 35% 29.68 in 10.0 mi SSW 8.1 mph - N/A   Clear
9:15 PM 86.0 °F 86.1 °F 60.8 °F 43% 29.68 in 10.0 mi SSE 3.5 mph - N/A   Clear
9:35 PM 87.8 °F 86.1 °F 55.4 °F 33% 29.69 in 10.0 mi SSE 5.8 mph - N/A   Clear
9:55 PM 87.8 °F 86.1 °F 55.4 °F 33% 29.69 in 10.0 mi SE 3.5 mph - N/A   Clear
10:15 PM 82.4 °F 82.5 °F 59.0 °F 45% 29.70 in 10.0 mi ENE 5.8 mph - N/A   Clear
10:35 PM 78.8 °F - 60.8 °F 54% 29.71 in 10.0 mi East 6.9 mph - N/A   Clear
10:55 PM 86.0 °F 84.5 °F 55.4 °F 35% 29.71 in 10.0 mi SE 5.8 mph - N/A   Clear
11:15 PM 84.2 °F 83.0 °F 55.4 °F 37% 29.71 in 10.0 mi SSE 4.6 mph - N/A   Clear
11:35 PM 78.8 °F - 59.0 °F 51% 29.71 in 10.0 mi SSE 4.6 mph - N/A   Clear
11:55 PM 80.6 °F 81.1 °F 59.0 °F 48% 29.71 in 10.0 mi SSE 4.6 mph - N/A   Clear